N0WKC Weather Reports


Display with metric or nautical units.
time (UTC)temp
F
wind
direction
speed
MPH
gust
MPH
rain 1hr
in
rain 24hr
in
rain mn
in
humidity
%
barometer
mb
20260505054506 64 24 3.0 0.0 0.00 0.00 0.00 71 1004.1
20260505053004 64 46 3.0 0.0 0.00 0.00 0.00 71 1004.3
20260505051508 64 117 2.0 0.0 0.00 0.00 0.00 71 1004.0
20260505041600 65 247 3.0 0.0 0.00 0.00 0.00 70 1004.6
20260505040104 65 123 3.0 0.0 0.00 0.00 0.00 70 1004.6
20260505034558 65 115 2.0 0.0 0.00 0.00 0.00 68 1005.0
20260505033059 66 179 3.0 0.0 0.00 0.00 0.00 68 1005.2
20260505031600 66 184 2.0 0.0 0.00 0.00 0.00 67 1005.1
20260505024558 67 34 2.0 0.0 0.00 0.00 0.00 64 1005.0
20260505023057 68 148 2.0 0.0 0.00 0.00 0.00 63 1004.7
20260505021556 68 360 2.0 0.0 0.00 0.00 0.00 62 1004.6
20260505020104 69 271 2.0 0.0 0.00 0.00 0.00 60 1004.4
20260505014557 69 242 2.0 0.0 0.00 0.00 0.00 59 1004.1
20260505013105 70 135 2.0 0.0 0.00 0.00 0.00 58 1003.8
20260505011600 70 293 2.0 0.0 0.00 0.00 0.00 57 1003.7
20260505010111 71 240 2.0 0.0 0.00 0.00 0.00 55 1003.6
20260505004555 72 241 2.0 0.0 0.00 0.00 0.00 54 1003.5
20260505003100 73 334 1.0 0.0 0.00 0.00 0.00 52 1003.4
20260505001604 73 167 2.0 0.0 0.00 0.00 0.00 51 1003.4
20260505000100 74 360 3.0 0.0 0.00 0.00 0.00 50 1003.4
20260504234557 75 234 3.0 0.0 0.00 0.00 0.00 50 1003.5
20260504233108 75 209 3.0 0.0 0.00 0.00 0.00 49 1003.5
20260504231603 76 55 3.0 0.0 0.00 0.00 0.00 49 1003.6
20260504230058 76 360 3.0 0.0 0.00 0.00 0.00 50 1003.6
20260504224554 77 254 4.0 0.0 0.00 0.00 0.00 49 1003.6
20260504223053 77 154 3.0 0.0 0.00 0.00 0.00 49 1003.6
20260504221552 77 304 3.0 0.0 0.00 0.00 0.00 49 1003.6
20260504220051 77 92 3.0 0.0 0.00 0.00 0.00 50 1003.7
20260504214555 78 16 3.0 0.0 0.00 0.00 0.00 50 1003.8
20260504213051 78 100 3.0 0.0 0.00 0.00 0.00 48 1003.9
20260504211550 78 208 3.0 0.0 0.00 0.00 0.00 47 1003.9
20260504210104 78 154 4.0 0.0 0.00 0.00 0.00 47 1004.0
20260504204558 79 42 3.0 0.0 0.00 0.00 0.00 47 1004.4
20260504203102 79 35 3.0 0.0 0.00 0.00 0.00 47 1004.5
20260504201546 80 74 4.0 0.0 0.00 0.00 0.00 45 1004.5
20260504200045 82 114 4.0 0.0 0.00 0.00 0.00 42 1004.8
20260504194544 83 219 3.0 0.0 0.00 0.00 0.00 42 1004.9
20260504193041 84 178 4.0 0.0 0.00 0.00 0.00 41 1005.1
20260504191542 83 171 4.0 0.0 0.00 0.00 0.00 40 1005.1
20260504190100 84 264 5.0 0.0 0.00 0.00 0.00 39 1005.4
20260504184538 84 77 3.0 0.0 0.00 0.00 0.00 42 1005.4
20260504183039 84 30 4.0 0.0 0.00 0.00 0.00 43 1005.6
20260504181541 83 360 4.0 0.0 0.00 0.00 0.00 42 1005.3
20260504180035 82 287 4.0 0.0 0.00 0.00 0.00 44 1005.4
20260504174532 82 82 4.0 0.0 0.00 0.00 0.00 45 1005.7
20260504173029 81 66 4.0 0.0 0.00 0.00 0.00 44 1005.8
20260504171526 80 87 4.0 0.0 0.00 0.00 0.00 42 1005.7
20260504081523 60 173 2.0 0.0 0.00 0.00 0.00 65 1009.0